Tracking 22879 objects as of 23-Apr-2021
HD Live streaming from Space Station
objects crossing your sky now

METEOR 2-17 DEB

Track METEOR 2-17 DEB now!
10-day predictions


NORAD ID: 31397
Int'l Code: 1988-005S
Perigee: 920.7 km
Apogee: 931.2 km
Inclination: 82.5 °
Period: 103.4 minutes
Semi major axis: 7296 km
RCS: 0.0107 m2 (small)
Launch date: January 30, 1988
Source: Commonwealth of Independent States (former USSR) (CIS)
Launch site: PLESETSK MISSILE AND SPACE COMPLEX (PKMTR)

Note: This is SATELLITE DEBRIS
aabbcc
Your satellite tracking list
Your tracking list is empty




NASA's NSSDC Master Catalog

Two Line Element Set (TLE):
1 31397U 88005S   21112.41800062  .00000855  00000-0  64885-3 0  9994
2 31397  82.5421 357.6004 0007179 238.8895 246.2264 13.92815319727418
Source of the keplerian elements: AFSPC